Regional Weather Roundup
Issued by NWS

Home | Current Version | Previous Version | Text Only | Print | Product List | Glossary On
Versions: 1 2 3 4 5 6 7 8 9 10 11 12 13 14 15 16 17 18 19 20 21 22 23 24 25 26 27 28 29 30 31 32 33 34 35 36 37 38 39 40 41 42 43 44 45 46 47 48 49 50
000
ASUS45 KBOU 050407
RWRCO

WEATHER ROUNDUP FOR COLORADO
NATIONAL WEATHER SERVICE DENVER/BOULDER CO
900 PM MST THU FEB 04 2016

NOTE: "FAIR" INDICATES FEW OR NO CLOUDS BELOW 12000 FEET WITH NO
SIGNIFICANT WEATHER AND/OR OBSTRUCTIONS TO VISIBILITY.

COZ001>005-013-030-031-050500-
...NORTHWEST COLORADO...

CITY           SKY/WX    TMP DP  RH WIND       PRES   REMARKS
CRAIG          LGT SNOW  15  11  83 CALM      30.31S FOG
HAYDEN         CLOUDY    12   9  85 CALM      30.28S
MEEKER         FLURRIES  16  13  88 CALM      30.32R
MOUNT WERNER   NOT AVBL
STEAMBOAT SPGS CLOUDY    10   7  89 CALM      30.28R
WALDEN         CLOUDY    14   7  73 SW12      30.18S WCI   0
$$

COZ006>008-011-050500-
...WEST CENTRAL VALLEYS...

CITY           SKY/WX    TMP DP  RH WIND       PRES   REMARKS
GRAND JUNCTION LGT SNOW  17  15  92 CALM      30.44R FOG
MONTROSE       CLOUDY    14   7  73 S3        30.41R
EAGLE          CLOUDY    14  12  92 CALM      30.32S
RIFLE          LGT SNOW  16  12  84 CALM      30.39S FOG
DELTA          CLOUDY    21  15  78 E3        30.43R
NUCLA          CLOUDY    18  14  86 CALM      30.41R
$$

COZ017>023-064>068-050500-
...SOUTHWEST COLORADO...

CITY           SKY/WX    TMP DP  RH WIND       PRES   REMARKS
DURANGO        CLOUDY     9  -1  64 NE3       30.27F
CORTEZ         CLOUDY    15  10  80 E6        30.34S WCI   6
PAGOSA SPRINGS CLOUDY     6   4  89 CALM      30.25R
TELLURIDE      CLOUDY    10   6  85 S3        30.23S
WOLF CREEK PAS NOT AVBL
$$

COZ009-010-012-014-032>034-037-058>063-050500-
...CENTRAL COLORADO...

CITY           SKY/WX    TMP DP  RH WIND       PRES   REMARKS
ASPEN          LGT SNOW  13   9  84 CALM      30.25R FOG
BUENA VISTA    CLOUDY    18   5  57 SW5       30.13S WCI  11
COPPER MTN     LGT SNOW   5   0  78 NW12      30.07S WCI -11
BERTHOUD PASS  CLOUDY    -4 -13  65 N22G33    30.00F WCI -28
COTTONWOOD PAS CLOUDY    19   5  53 W8        30.08S WCI   9
GUNNISON       CLOUDY    -2  -4  92 CALM      30.31S
KREMMLING      FLURRIES   3   0  85 CALM      30.28S
LEADVILLE      CLOUDY     6   1  80 NW12      30.12R WCI  -9
MONARCH PASS   CLOUDY     1  -4  78 MISG      30.14F
SALIDA         CLOUDY    24   7  49 SW10G16   30.22S WCI  13
SUNLIGHT       LGT SNOW N/A N/A N/A CALM        N/A
WILKERSON PASS CLOUDY    12   5  73 NW14G22   30.05S WCI  -3
$$

COZ069>075-050500-
...SAN LUIS VALLEY/SANGRE DE CRISTO MOUNTAINS...

CITY           SKY/WX    TMP DP  RH WIND       PRES   REMARKS
ALAMOSA        CLOUDY    -1  -7  75 NW3       30.19F
LA VETA PASS   CLOUDY     3  -4  72 MISG      30.05S
SAGUACHE       CLOUDY    16   7  67 NW9       30.19S WCI   4
$$

COZ035-036-038>040-050500-
...NORTHERN COLORADO FRONT RANGE...

CITY           SKY/WX    TMP DP  RH WIND       PRES   REMARKS
DENVER INTL AP CLOUDY    21   7  54 W7        30.16R WCI  12
DMNS CITY PARK   N/A     23  10  56 NE1G8     30.17R
AURORA         CLOUDY    21  11  65 W3        30.15S
FRONT RANGE AP CLOUDY    21  12  68 W5        30.16R WCI  15
ERIE MUNI ARPT CLOUDY    21  14  75 CALM      30.17S
BOULDER MUN AP CLOUDY    25  12  58 CALM      30.17R
CENTENNIAL     CLOUDY    23  10  57 N3        30.14R
BROOMFIELD     CLOUDY    23   9  54 CALM      30.15R
FORT COLLINS   CLOUDY    21  12  68 SE6       30.17S WCI  14
LONGMONT       CLOUDY    24  15  68 SW3       30.20R
$$

COZ041-046-047-076>085-087-088-050500-
...PIKES PEAK/PALMER DIVIDE AND SOUTHERN FOOTHILLS...

CITY           SKY/WX    TMP DP  RH WIND       PRES   REMARKS
COLO. SPRINGS  CLOUDY    26   1  34 CALM      30.15S
A. F. ACADEMY  LGT SNOW  19  16  87 NE3       30.13S FOG
SCHRIEVER AFB  CLOUDY    22   8  56 W5        30.15S WCI  15
ELLICOTT       NOT AVBL
FALCON         LGT SNOW  20  14  79 W9        30.13R WCI   9
FORT CARSON    CLOUDY    23  13  64 N3        30.14S
LIMON          CLOUDY    22   6  50 SW5       30.16S WCI  16
MONUMENT HILL  FLURRIES  21  12  68 SW8       30.12R WCI  12
TRINIDAD       CLOUDY    29  10  45 NW8       30.12S WCI  21
$$

COZ042>045-048>051-090-091-050500-
...NORTHEAST COLORADO...

CITY           SKY/WX    TMP DP  RH WIND       PRES   REMARKS
GREELEY ARPT   CLOUDY    23  16  74 CALM      30.19S
AKRON          CLOUDY    25  14  63 W9        30.18R WCI  15
BURLINGTON     CLOUDY    24  10  55 SW12      30.20R WCI  13
WRAY           CLOUDY    26  16  66 W10       30.23R WCI  15
STERLING       CLOUDY    23  18  80 S3        30.20S
HOLYOKE        CLOUDY    27  19  74 W8        30.21S WCI  18
FORT MORGAN    CLOUDY    25  14  64 E3        30.19S
$$

COZ086-089-092>099-050500-
...SOUTHEAST COLORADO...

CITY           SKY/WX    TMP DP  RH WIND       PRES   REMARKS
PUEBLO         CLOUDY    28  12  51 N7        30.17R WCI  21
LA JUNTA       CLOUDY    25  17  72 E7        30.16F WCI  17
LAMAR          CLOUDY    25  19  78 CALM      30.19F
SPRINGFIELD      N/A     27  15  61 E9        30.17F WCI  18
$$



USA.gov is the U.S. government's official web portal to all federal, state and local government web resources and services.